Location: Estes Park
(40.3770°N, 105.5210°W)
Time: 00:03:33
(UTC-07:00)

Vanguard 1 - Visible Passes

Search period start: 13 December 2017 00:00
Search period end: 23 December 2017 00:00
Orbit: 650 x 3833 km, 34.2° (Epoch: 10 December)

Date Brightness Start Highest point End Pass type
(mag) Time Alt. Az. Time Alt. Az. Time Alt. Az.
13 Dec 14.6 05:53:43 10° S 06:09:16 23° SE 06:22:45 10° E visible
14 Dec 14.5 06:12:13 10° SSW 06:30:18 30° SE 06:45:24 10° E visible
15 Dec 14.7 04:22:00 10° SE 04:27:49 11° SE 04:33:33 10° ESE visible
15 Dec 14.3 06:31:30 10° SSW 06:51:20 37° SE 07:07:26 10° E visible
16 Dec 14.5 04:36:01 10° SSE 04:48:35 18° SE 05:00:42 10° E visible
17 Dec 14.4 04:53:27 10° S 05:09:21 24° SE 05:24:31 10° E visible
18 Dec 14.2 05:12:05 10° SSW 05:30:11 31° SE 05:47:12 10° E visible
19 Dec 14.5 03:22:02 10° SE 03:28:11 12° SE 03:34:27 10° ESE visible
19 Dec 14.0 05:31:28 10° SSW 05:51:05 38° SE 06:09:17 10° E visible
20 Dec 14.3 03:36:32 10° SSE 03:48:42 18° SE 04:01:27 10° E visible
20 Dec 13.8 05:51:21 10° SSW 06:12:06 46° SSE 06:31:01 10° E visible
21 Dec 14.1 03:54:08 10° S 04:09:15 25° SE 04:25:19 10° E visible
21 Dec 13.7 06:11:38 10° SW 06:33:13 53° SSE 06:52:33 10° E visible
22 Dec 14.0 04:12:53 10° S 04:29:52 32° SE 04:48:05 10° E visible
22 Dec 13.5 06:32:14 10° SW 06:54:28 59° SSE 07:13:57 10° E visible
